Location: Unspecified
(0.0000°N, 0.0000°E)
Time: 22:29:50
(UTC-04:00)

Envisat - Pass Details

Date: 24 September 2021
Orbit: 764 x 766 km, 98.2° (Epoch: 26 October)

Event Time Altitude Azimuth Distance (km) Brightness Sun altitude
Rises 00:46:18 0° 11° (N) 3,212 6.4 -16.4°
Reaches altitude 10° 00:48:35 10° 11° (N) 2,289 5.6 -15.9°
Maximum altitude 00:53:38 86° 283° (WNW) 769 2.9 -14.6°
Drops below altitude 10° 00:58:43 10° 193° (SSW) 2,299 5.3 -13.3°
Sets 01:01:01 0° 193° (SSW) 3,227 6.1 -12.8°
